Hutchinson, MN

9:28 PM CST on December 15, 2017 (GMT -0600)
Hutchinson Municipal-Butler

Weather History for KHCD - April, 2014

Change the Weather History Date:

Wednesday, April 16, 2014

  Actual Average Record
Temperature  
Mean Temperature 32 °F -  
Max Temperature 34 °F 59 °F 84 °F (1958)
Min Temperature 29 °F 36 °F 18 °F (1961)
Degree Days  
Heating Degree Days 34    
Moisture  
Dew Point 26 °F    
Average Humidity 80    
Maximum Humidity 99    
Minimum Humidity 52    
Precipitation  
Precipitation 0.01 in - - ()
Sea Level Pressure  
Sea Level Pressure 29.91 in    
Wind  
Wind Speed 16 mph (ENE)    
Max Wind Speed 22 mph    
Max Gust Speed 31 mph    
Visibility 6 miles    
Events Rain , Snow    
Averages and records for this station are not official NWS values.
T = Trace of Precipitation, MM = Missing Value Source: NWS Daily Summary

Daily Weather History Graph

Daily Weather History Graph

Search for Another Location

Airport or City:

Trip Planner

Search our weather history database for the weather conditions in past years. The results will help you decide how hot, cold, wet, or windy it might be!

Date:

Astronomy

Apr. 16, 2014 Rise Set
Actual Time 6:31 AM CDT 8:04 PM CDT
Civil Twilight 6:00 AM CDT 8:34 PM CDT
Nautical Twilight 5:23 AM CDT 9:12 PM CDT
Astronomical Twilight 4:43 AM CDT 9:52 PM CDT
Moon 9:52 PM CDT 7:16 AM CDT
Length of Visible Light 14h 34m
Length of Day
13h 32m
Full, 98% of the Moon is Illuminated
Apr 16
Full
Apr 22
Last Quarter
Apr 29
New
May 6
First Quarter
May 14
Full

Hourly Weather History & Observations

Time (CDT) Temp. Windchill Dew Point Humidity Pressure Visibility Wind Dir Wind Speed Gust Speed Precip Events Conditions
12:13 AM 34.0 °F 25.5 °F 18.0 °F 52% 30.00 in 10.0 mi ESE 11.5 mph - N/A   Overcast
12:33 AM 33.8 °F 23.5 °F 18.3 °F 53% 29.99 in 10.0 mi East 16.1 mph - N/A   Overcast
12:52 AM 33.8 °F 25.3 °F 19.2 °F 55% 30.00 in 10.0 mi East 11.5 mph - N/A   Overcast
1:13 AM 33.4 °F 23.5 °F 19.2 °F 56% 29.99 in 10.0 mi East 15.0 mph 21.9 mph N/A   Overcast
1:33 AM 33.4 °F 23.9 °F 19.4 °F 56% 29.98 in 10.0 mi East 13.8 mph 20.7 mph N/A   Overcast
1:53 AM 33.3 °F 22.8 °F 19.8 °F 58% 29.97 in 10.0 mi East 16.1 mph 24.2 mph N/A   Overcast
2:13 AM 33.3 °F 23.2 °F 19.9 °F 58% 29.96 in 10.0 mi East 15.0 mph 20.7 mph N/A   Overcast
2:33 AM 33.3 °F 21.8 °F 19.6 °F 57% 29.94 in 10.0 mi East 19.6 mph 25.3 mph N/A   Overcast
2:53 AM 33.3 °F 21.8 °F 19.6 °F 57% 29.94 in 10.0 mi East 19.6 mph 24.2 mph N/A   Overcast
3:13 AM 33.4 °F 22.0 °F 19.6 °F 57% 29.94 in 10.0 mi East 19.6 mph 26.5 mph N/A   Overcast
3:33 AM 33.3 °F 22.1 °F 19.9 °F 58% 29.93 in 10.0 mi East 18.4 mph 23.0 mph N/A   Overcast
3:53 AM 33.3 °F 21.8 °F 19.6 °F 57% 29.92 in 10.0 mi East 19.6 mph 26.5 mph N/A   Overcast
4:13 AM 33.3 °F 21.8 °F 19.6 °F 57% 29.92 in 10.0 mi East 19.6 mph 28.8 mph N/A   Overcast
4:33 AM 33.3 °F 22.8 °F 19.9 °F 58% 29.91 in 10.0 mi East 16.1 mph 26.5 mph N/A   Overcast
4:53 AM 33.3 °F 22.1 °F 20.3 °F 59% 29.91 in 10.0 mi East 18.4 mph 25.3 mph N/A   Overcast
5:13 AM 33.3 °F 22.5 °F 20.5 °F 59% 29.90 in 10.0 mi East 17.3 mph 25.3 mph N/A   Overcast
5:33 AM 33.3 °F 22.5 °F 20.5 °F 59% 29.89 in 10.0 mi East 17.3 mph 27.6 mph N/A   Overcast
5:53 AM 33.4 °F 22.0 °F 20.5 °F 59% 29.89 in 10.0 mi East 19.6 mph 26.5 mph N/A   Overcast
6:12 AM 33.4 °F 22.0 °F 20.3 °F 59% 29.88 in 10.0 mi East 19.6 mph 26.5 mph N/A   Overcast
6:33 AM 33.4 °F 22.0 °F 20.8 °F 60% 29.89 in 10.0 mi East 19.6 mph 25.3 mph N/A   Overcast
6:53 AM 33.8 °F 23.2 °F 21.0 °F 60% 29.89 in 10.0 mi East 17.3 mph 24.2 mph N/A   Overcast
7:13 AM 33.8 °F 22.8 °F 21.0 °F 60% 29.89 in 10.0 mi East 18.4 mph 25.3 mph N/A   Overcast
7:33 AM 34.0 °F 23.4 °F 21.2 °F 60% 29.89 in 10.0 mi East 17.3 mph 25.3 mph N/A   Overcast
7:53 AM 34.2 °F 23.3 °F 21.2 °F 59% 29.89 in 10.0 mi East 18.4 mph 26.5 mph N/A   Overcast
8:13 AM 34.3 °F 23.2 °F 21.7 °F 60% 29.88 in 10.0 mi East 19.6 mph 26.5 mph N/A   Overcast
8:53 AM 34.9 °F 24.6 °F 22.3 °F 60% 29.89 in 10.0 mi East 17.3 mph 24.2 mph N/A   Overcast
9:13 AM 33.4 °F 22.7 °F 26.2 °F 75% 29.88 in 1.2 mi East 17.3 mph 24.2 mph N/A Snow Light Snow
9:33 AM 32.9 °F 22.8 °F 28.2 °F 83% 29.87 in 7.0 mi ENE 15.0 mph 23.0 mph N/A Snow Light Snow
9:53 AM 32.9 °F 22.8 °F 28.4 °F 84% 29.87 in 7.0 mi ENE 15.0 mph - N/A Snow Light Snow
10:13 AM 32.4 °F 20.6 °F 29.8 °F 90% 29.86 in 0.5 mi East 19.6 mph 28.8 mph N/A Snow Light Snow
10:53 AM 32.0 °F 21.6 °F 31.1 °F 96% 29.87 in 0.5 mi East 15.0 mph 20.7 mph N/A Snow Snow
11:13 AM 32.0 °F 22.5 °F 31.6 °F 99% 29.87 in 0.5 mi East 12.7 mph 18.4 mph N/A Snow Snow
11:33 AM 32.4 °F 23.0 °F 31.8 °F 98% 29.86 in 0.8 mi ENE 12.7 mph - N/A Snow Light Snow
11:53 AM 32.9 °F 22.0 °F 31.8 °F 96% 29.85 in 4.0 mi ENE 17.3 mph 23.0 mph N/A Snow Light Snow
12:13 PM 33.3 °F 23.7 °F 31.1 °F 92% 29.85 in 7.0 mi ENE 13.8 mph - N/A Rain Light Rain
12:33 PM 33.1 °F 23.0 °F 31.1 °F 92% 29.85 in 10.0 mi ENE 15.0 mph 20.7 mph N/A Snow Light Snow
12:53 PM 32.9 °F 22.0 °F 30.7 °F 92% 29.85 in 2.0 mi NE 17.3 mph - N/A Snow Light Snow
1:13 PM 32.5 °F 22.3 °F 31.1 °F 94% 29.86 in 1.2 mi NE 15.0 mph - N/A Snow Light Snow
1:32 PM 32.2 °F 21.1 °F 31.5 °F 97% 29.86 in 1.2 mi NE 17.3 mph - N/A Snow Light Snow
1:53 PM 32.2 °F 21.4 °F 31.6 °F 98% 29.85 in 0.5 mi NE 16.1 mph - N/A Snow Snow
2:13 PM 32.4 °F 21.7 °F 31.6 °F 97% 29.86 in 0.5 mi NE 16.1 mph - N/A Snow Snow
2:32 PM 32.0 °F 21.2 °F 31.6 °F 99% 29.86 in 0.5 mi NE 16.1 mph - N/A Snow Light Snow
2:53 PM 32.0 °F 21.2 °F 31.6 °F 99% 29.86 in 0.5 mi NE 16.1 mph - N/A Snow Light Snow
3:13 PM 32.0 °F 20.8 °F 31.1 °F 96% 29.86 in 0.8 mi NE 17.3 mph 21.9 mph N/A Snow Light Snow
3:33 PM 32.0 °F 20.8 °F 30.9 °F 96% 29.87 in 1.0 mi NE 17.3 mph - N/A Snow Light Snow
3:53 PM 32.0 °F 20.8 °F 30.7 °F 95% 29.87 in 0.5 mi NE 17.3 mph 21.9 mph 0.01 in Snow Light Snow
4:13 PM 32.0 °F 20.5 °F 30.9 °F 96% 29.87 in 1.0 mi NE 18.4 mph 24.2 mph N/A Snow Light Snow
4:53 PM 32.0 °F 19.8 °F 30.6 °F 94% 29.87 in 1.2 mi NNE 20.7 mph 27.6 mph N/A Snow Light Snow
5:13 PM 32.0 °F 20.8 °F 30.2 °F 93% 29.88 in 1.8 mi NNE 17.3 mph 27.6 mph N/A Snow Light Snow
5:32 PM 31.8 °F 19.9 °F 30.2 °F 94% 29.89 in 0.5 mi NNE 19.6 mph 25.3 mph N/A Snow Snow
5:53 PM 31.6 °F 19.0 °F 30.2 °F 94% 29.89 in 0.8 mi NE 21.9 mph - N/A Snow Light Snow
6:13 PM 31.5 °F 19.8 °F 30.2 °F 95% 29.90 in 1.8 mi NNE 18.4 mph 23.0 mph N/A Snow Light Snow
6:32 PM 31.1 °F 19.7 °F 29.8 °F 95% 29.91 in 1.5 mi NNE 17.3 mph - N/A Snow Light Snow
6:53 PM 31.1 °F 19.3 °F 29.7 °F 94% 29.92 in 1.0 mi NNE 18.4 mph 24.2 mph N/A Snow Light Snow
7:13 PM 31.1 °F 19.3 °F 29.7 °F 94% 29.92 in 1.0 mi NNE 18.4 mph 25.3 mph N/A Snow Light Snow
7:32 PM 31.1 °F 18.9 °F 29.7 °F 94% 29.92 in 1.5 mi NNE 19.6 mph 24.2 mph N/A Snow Light Snow
7:53 PM 30.9 °F 18.7 °F 29.3 °F 94% 29.92 in 1.5 mi NNE 19.6 mph 25.3 mph N/A Snow Light Snow
8:13 PM 30.9 °F 21.2 °F 29.1 °F 93% 29.93 in 1.5 mi North 12.7 mph 25.3 mph N/A Snow Light Snow
8:33 PM 30.7 °F 19.6 °F 29.1 °F 94% 29.94 in 3.0 mi North 16.1 mph 28.8 mph N/A Snow Light Snow
8:53 PM 30.6 °F 19.8 °F 28.4 °F 92% 29.96 in 4.0 mi North 15.0 mph 26.5 mph N/A Snow Light Snow
9:13 PM 30.6 °F 18.2 °F 28.2 °F 91% 29.96 in 4.0 mi NNE 19.6 mph 31.1 mph N/A   Overcast
9:33 PM 30.6 °F 19.4 °F 28.0 °F 90% 29.97 in 5.0 mi North 16.1 mph 26.5 mph N/A   Overcast
9:53 PM 30.2 °F 18.1 °F 27.5 °F 90% 29.98 in 5.0 mi North 18.4 mph 28.8 mph N/A   Overcast
10:13 PM 30.2 °F 19.3 °F 27.3 °F 89% 29.98 in 5.0 mi North 15.0 mph 26.5 mph N/A   Overcast
10:33 PM 30.2 °F 18.9 °F 27.3 °F 89% 29.99 in 5.0 mi North 16.1 mph 25.3 mph N/A   Overcast
10:53 PM 30.0 °F 20.0 °F 27.0 °F 88% 30.00 in 7.0 mi North 12.7 mph 25.3 mph N/A   Overcast
11:13 PM 30.0 °F 20.0 °F 27.0 °F 88% 30.01 in 7.0 mi North 12.7 mph 28.8 mph N/A   Overcast
11:33 PM 29.8 °F 20.3 °F 26.6 °F 88% 30.01 in 10.0 mi North 11.5 mph 21.9 mph N/A   Overcast
11:53 PM 29.7 °F 19.6 °F 26.4 °F 88% 30.01 in 10.0 mi North 12.7 mph 23.0 mph N/A   Overcast